This is the latest recevied weather packets stored in our database for station/object N8RJC-13. If no packets are shown the sender has not sent any weather packets the latest 1 day(s).
| Time | Temp. | Humidity | Pressure | Rain* | Wind** | Luminosity | Snow |
|---|---|---|---|---|---|---|---|
| 1778044280 | 8.33° C | 94% | 984.6 hPa | 7.62 mm | 0.89 m/s, 313° | - | - |
| 1778044161 | 8.89° C | 94% | 984.3 hPa | 5.84 mm | 2.24 m/s, 324° | - | - |
| 1778044101 | 8.89° C | 94% | 984.3 hPa | 5.84 mm | 2.24 m/s, 324° | - | - |
| 1778043981 | 8.89° C | 94% | 984.3 hPa | 5.84 mm | 2.24 m/s, 324° | - | - |
| 1778043861 | 8.89° C | 94% | 984.1 hPa | 5.84 mm | 2.68 m/s, 351° | - | - |
| 1778043801 | 8.89° C | 94% | 984.1 hPa | 5.84 mm | 2.68 m/s, 351° | - | - |
| 1778043741 | 8.89° C | 94% | 984.1 hPa | 5.84 mm | 2.68 m/s, 351° | - | - |
| 1778043680 | 8.89° C | 94% | 984.1 hPa | 5.84 mm | 2.68 m/s, 351° | - | - |
| 1778043561 | 8.89° C | 94% | 984.3 hPa | 4.57 mm | 3.58 m/s, 7° | - | - |
| 1778043440 | 8.89° C | 94% | 984.3 hPa | 4.57 mm | 3.58 m/s, 7° | - | - |
| 1778043381 | 8.89° C | 94% | 984.3 hPa | 4.57 mm | 3.58 m/s, 7° | - | - |
| 1778043321 | 8.89° C | 94% | 984.3 hPa | 4.57 mm | 3.58 m/s, 7° | - | - |
| 1778043260 | 8.89° C | 95% | 983.9 hPa | 2.79 mm | 1.79 m/s, 17° | - | - |
| 1778043201 | 8.89° C | 95% | 983.9 hPa | 2.79 mm | 1.79 m/s, 17° | - | - |
| 1778042960 | 8.89° C | 95% | 983.8 hPa | 4.57 mm | 2.24 m/s, 309° | - | - |
| 1778042901 | 8.89° C | 95% | 983.8 hPa | 4.57 mm | 2.24 m/s, 309° | - | - |
| 1778042780 | 8.89° C | 95% | 983.8 hPa | 4.57 mm | 2.24 m/s, 309° | - | - |
| 1778042721 | 8.89° C | 95% | 983.8 hPa | 4.57 mm | 2.24 m/s, 309° | - | - |
| 1778042661 | 9.44° C | 95% | 983.9 hPa | 6.6 mm | 1.79 m/s, 49° | - | - |
| 1778042480 | 9.44° C | 95% | 983.9 hPa | 6.6 mm | 1.79 m/s, 49° | - | - |
| 1778042301 | 9.44° C | 95% | 983.8 hPa | 5.84 mm | 3.13 m/s, 342° | - | - |
| 1778042240 | 9.44° C | 95% | 983.8 hPa | 5.84 mm | 3.13 m/s, 342° | - | - |
| 1778042181 | 9.44° C | 95% | 983.8 hPa | 5.84 mm | 3.13 m/s, 342° | - | - |
| 1778042121 | 9.44° C | 95% | 983.8 hPa | 5.84 mm | 3.13 m/s, 342° | - | - |
| 1778042001 | 9.44° C | 95% | 983.9 hPa | 5.84 mm | 0.89 m/s, 343° | - | - |
* Rain latest hour (hover to see other rain measurements)
** Current wind speed in m/s (hover to see current wind gust speed)